Flag for Poland Weather past 2 weeks in Dąbrowa Górnicza, Poland

Now
41 °F

Partly sunny.


Feels Like: 35 °F
Forecast: 29 / 46 °F
Wind: 10 mph from Northeast

Location: Katowice Airport

Current Time: Oct 24, 2014 at 3:50:58 PM

Latest Report: Oct 24, 2014 at 3:00 PM


Visibility: N/A

Pressure: 30.27 "Hg

Humidity: 76%

Dew point: 34 °F

Location of Dąbrowa GórniczaLocation

Historic Weather in Dąbrowa Górnicza — Graph

°F

Dąbrowa Górnicza temperature yesterday

Maximum temperature yesterday: 48 °F (at 3:30 AM)
Minimum temperature yesterday: 37 °F (at 4:00 PM)
Average temperature yesterday: 41 °F

Past Weeks' High & Low Weather Summary

 TemperatureHumidityPressure
High75 °F (Oct 11, 3:00 PM)100% (Oct 10, 9:00 PM)30.33 "Hg (Oct 10, 9:00 PM)
Low34 °F (Oct 24, 8:00 AM)50% (Oct 9, 4:30 PM)29.53 "Hg (Oct 22, 3:00 AM)
Average54 °F88%29.93 "Hg
* Reported Oct 9 2:00 PM — Oct 24 2:30 PM, Dąbrowa Górnicza, Weather by CustomWeather, © 2014

Note: Actual official high and low records may vary slightly from our data, if they occured in-between our weather recording intervals... More about our weather records

Advertising

Dąbrowa Górnicza weather history for previous 24 hours

 ConditionsComfort  
Time TempWeatherWind HumidityBarometerVisibility
2:30 PM
Oct 24
41 °FPartly sunny.9 mph81%30.27 "HgN/A
2:00 PM39 °FPartly sunny.10 mph81%30.27 "HgN/A
1:30 PM37 °FScattered clouds.10 mph87%30.27 "HgN/A
1:00 PM39 °FBroken clouds.8 mph81%30.27 "HgN/A
12:30 PM37 °FBroken clouds.9 mph81%30.27 "HgN/A
12:00 PM36 °FBroken clouds.9 mph87%30.27 "HgN/A
11:30 AM36 °FBroken clouds.9 mph87%30.30 "HgN/A
11:00 AM36 °FBroken clouds.9 mph87%30.30 "Hg5 mi
10:30 AM36 °FBroken clouds.9 mph93%30.27 "Hg5 mi
10:00 AM36 °FBroken clouds.9 mph93%30.27 "Hg4 mi
9:30 AM34 °FBroken clouds.8 mph93%30.27 "Hg4 mi
9:00 AM34 °FFog.8 mph100%30.27 "Hg3 mi
8:30 AM34 °FFog.8 mph100%30.24 "Hg2 mi
8:00 AM34 °FFog.9 mph100%30.24 "Hg2 mi
7:30 AM36 °FFog.9 mph93%30.24 "Hg2 mi
7:00 AM36 °FFog.10 mph93%30.24 "Hg2 mi
6:30 AM36 °FFog.12 mph93%30.24 "Hg2 mi
6:00 AM36 °FFog.10 mph93%30.21 "Hg2 mi
5:30 AM36 °FFog.12 mph100%30.21 "Hg2 mi
5:00 AM36 °FFog.10 mph100%30.21 "Hg1 mi
4:30 AM36 °FFog.10 mph100%30.21 "Hg1 mi
4:00 AM36 °FFog.12 mph100%30.21 "Hg1 mi
3:30 AM36 °FFog.8 mph100%30.21 "Hg1 mi
3:00 AM36 °FFog.9 mph100%30.18 "Hg1 mi
2:30 AM36 °FFog.10 mph100%30.21 "Hg1 mi
2:00 AM36 °FFog.12 mph100%30.18 "Hg1 mi
1:30 AM36 °FFog.12 mph100%30.18 "Hg1 mi
1:00 AM36 °FFog.10 mph100%30.18 "Hg2 mi
12:30 AM36 °FPartly cloudy.9 mph100%30.18 "Hg4 mi
12:00 AM37 °FPartly cloudy.10 mph93%30.18 "HgN/A
11:30 PM
Oct 23
37 °FPartly cloudy.9 mph93%30.18 "HgN/A
11:00 PM37 °FPartly cloudy.9 mph93%30.18 "HgN/A
10:30 PM37 °FPartly cloudy.9 mph93%30.18 "HgN/A
10:00 PM37 °FPartly cloudy.8 mph93%30.18 "HgN/A
9:30 PM37 °FPartly cloudy.9 mph93%30.15 "HgN/A
9:00 PM37 °FPartly cloudy.9 mph93%30.15 "HgN/A
8:30 PM37 °FPartly cloudy.10 mph93%30.15 "Hg5 mi
8:00 PM37 °FPartly cloudy.9 mph93%30.12 "Hg5 mi
7:30 PM37 °FDrizzle. Fog.10 mph93%30.12 "Hg2 mi
7:00 PM37 °FPartly cloudy.12 mph93%30.12 "Hg4 mi
6:30 PM37 °FDrizzle. Fog.10 mph93%30.12 "Hg2 mi
6:00 PM37 °FDrizzle. Fog.9 mph100%30.09 "Hg2 mi
5:30 PM37 °FDrizzle. Fog.13 mph100%30.09 "Hg1 mi
5:00 PM37 °FDrizzle. Fog.12 mph100%30.07 "Hg1 mi
4:30 PM37 °FDrizzle. Fog.13 mph100%30.07 "Hg1 mi
4:00 PM37 °FDrizzle. Fog.13 mph100%30.04 "Hg1 mi
3:30 PM39 °FDrizzle. Fog.12 mph93%30.04 "Hg1 mi
3:00 PM39 °FDrizzle. Fog.15 mph100%30.04 "Hg1 mi
Weather by CustomWeather, © 2014

See weather overviewHow to use our weather pages